This demonstration page uses our WeatherBlox Daily Observations layout. Learn more.

Left ArrowRight Arrow

Hourly Observations for December 10, 2022

Temp ( °F °C ) Dew Point ( °F °C ) Humidity (%) Winds ( mph kmh ) Pressure ( in mb ) Visibility ( mi km ) Precip ( " mm )
12:52 am 00:52 Cloudy with Light Rain 40 4.4 38 3.3 93 93 Calm 30.12 1020 8 13 0.01 0.13
1:52 am 01:52 Cloudy with Rain 42 5.6 39 3.9 89 89 ESE 7 11 30.10 1019 6 10 0.02 0.51
2:52 am 02:52 Cloudy with Rain 41 5 39 3.9 93 93 NNW 6 9 30.14 1021 4 6 0.13 3.30
3:52 am 03:52 Cloudy with Rain 41 5 40 4.4 96 96 E 12 19 30.09 1019 4 6 0.23 5.84
4:39 am 04:39 Cloudy with Heavy Rain 42 5.6 41 5 96 96 NE 7 11 30.11 1020 4 6 0.14 3.56
4:52 am 04:52 Cloudy with Rain 42 5.6 41 5 96 96 NE 7 11 30.10 1019 4 6 0.20 5.08
5:42 am 05:42 Cloudy with Heavy Rain 42 5.6 41 5 96 96 ESE 6 9 30.13 1020 3 5 0.20 5.08
5:52 am 05:52 Cloudy with Rain 42 5.6 41 5 96 96 ESE 10 17 30.09 1019 3 5 0.24 6.10
6:02 am 06:02 Cloudy with Heavy Rain 42 5.6 41 5 96 96 ESE 8 13 30.12 1020 3 5 0.03 0.76
6:52 am 06:52 Cloudy with Rain 43 6.1 41 5 93 93 E 12 19 30.09 1019 5 8 0.26 6.60
7:03 am 07:03 Cloudy with Rain 43 6.1 42 5.6 97 97 NNW 10 17 30.14 1021 5 8 0.02 0.51
7:12 am 07:12 Cloudy with Rain 43 6.1 42 5.6 97 97 N 9 15 30.13 1020 4 6 0.05 1.27
7:48 am 07:48 Cloudy with Light Rain 41 5 41 5 100 100 NNW 9 15 30.16 1021 8 13 0.08 2.03
7:52 am 07:52 Cloudy with Light Rain 41 5 41 5 100 100 N 7 11 30.14 1021 8 13 0.08 2.03
8:52 am 08:52 Cloudy with Mist and Fog 42 5.6 41 5 96 96 ESE 8 13 30.12 1020 6 10 0.01 0.13
9:03 am 09:03 Cloudy with Light Rain 43 6.1 42 5.6 97 97 ESE 7 11 30.12 1020 3 5 0.01 0.13
9:28 am 09:28 Cloudy 44 6.7 43 6.1 96 96 SE 5 7 30.14 1021 10 16 0.01 0.13
9:52 am 09:52 Cloudy 44 6.7 43 6.1 96 96 SE 5 7 30.13 1020 10 16 0.01 0.13
10:52 am 10:52 Cloudy with Mist and Fog 45 7.2 43 6.1 93 93 N 5 7 30.13 1020 3 5 0.00 0.00
11:52 am 11:52 Cloudy with Mist and Fog 45 7.2 44 6.7 97 97 N 5 7 30.12 1020 3 4 0.00 0.00
12:14 pm 12:14 Cloudy with Mist and Fog 46 7.8 44 6.7 93 93 NNE 3 6 30.12 1020 3 5 0.00 0.00
12:24 pm 12:24 Cloudy with Mist and Fog 46 7.8 44 6.7 93 93 N 5 7 30.12 1020 3 5 0.00 0.00
12:34 pm 12:34 Cloudy with Mist and Fog 46 7.8 44 6.7 93 93 NNW 6 9 30.12 1020 4 6 0.00 0.00
12:59 pm 12:59 Cloudy with Mist and Fog 45 7.2 44 6.7 97 97 NNW 7 11 30.13 1020 3 4 0.00 0.00
1:52 pm 13:52 Cloudy with Mist and Fog 45 7.2 44 6.7 97 97 N 8 13 30.11 1020 2 3 0.00 0.00
2:17 pm 14:17 Cloudy with Mist and Fog 45 7.2 44 6.7 97 97 N 8 13 30.13 1020 3 5 0.00 0.00
2:27 pm 14:27 Cloudy with Mist and Fog 45 7.2 44 6.7 97 97 N 10 17 30.13 1020 3 4 0.00 0.00
2:37 pm 14:37 Cloudy with Mist and Fog 45 7.2 44 6.7 97 97 N 8 13 30.13 1020 4 6 0.00 0.00
2:52 pm 14:52 Cloudy 45 7.2 44 6.7 97 97 N 10 17 30.11 1020 7 11 0.00 0.00
3:23 pm 15:23 Cloudy with Mist and Fog 45 7.2 44 6.7 97 97 N 7 11 30.13 1020 3 5 0.00 0.00
3:30 pm 15:30 Cloudy with Mist and Fog 45 7.2 44 6.7 97 97 N 7 11 30.14 1020 2 3 0.00 0.00
3:52 pm 15:52 Cloudy with Mist and Fog 45 7.2 44 6.7 97 97 NNE 7 11 30.13 1020 5 8 0.00 0.00
4:18 pm 16:18 Cloudy 45 7.2 43 6.1 93 93 NNE 5 7 30.16 1021 10 16 0.00 0.00
4:52 pm 16:52 Cloudy 45 7.2 43 6.1 93 93 N 3 6 30.14 1021 10 16 0.00 0.00
5:01 pm 17:01 Cloudy 45 7.2 43 6.1 93 93 NE 3 6 30.16 1021 10 16 0.00 0.00
5:29 pm 17:29 Cloudy 45 7.2 43 6.1 93 93 NE 5 7 30.16 1021 10 16 0.00 0.00
5:52 pm 17:52 Cloudy 45 7.2 43 6.1 93 93 NE 5 7 30.15 1021 10 16 0.00 0.00
6:11 pm 18:11 Cloudy 45 7.2 44 6.7 97 97 N 5 7 30.18 1022 10 16 0.00 0.00
6:26 pm 18:26 Cloudy 45 7.2 44 6.7 97 97 N 5 7 30.18 1022 10 16 0.00 0.00
6:52 pm 18:52 Cloudy 45 7.2 44 6.7 97 97 N 5 7 30.16 1022 10 16 0.00 0.00
7:52 pm 19:52 Cloudy with Mist and Fog 45 7.2 43 6.1 93 93 N 9 15 30.17 1022 5 8 0.00 0.00
8:11 pm 20:11 Cloudy 44 6.7 43 6.1 96 96 N 7 11 30.19 1022 8 13 0.00 0.00
8:52 pm 20:52 Cloudy 44 6.7 43 6.1 96 96 N 5 7 30.17 1022 9 14 0.00 0.00
9:10 pm 21:10 Cloudy 44 6.7 43 6.1 96 96 N 6 9 30.20 1023 9 14 0.00 0.00
9:20 pm 21:20 Cloudy 44 6.7 43 6.1 96 96 N 6 9 30.19 1022 9 14 0.00 0.00
9:35 pm 21:35 Cloudy 44 6.7 43 6.1 96 96 N 6 9 30.19 1022 9 14 0.00 0.00
9:52 pm 21:52 Cloudy 44 6.7 43 6.1 96 96 NNE 7 11 30.18 1022 8 13 0.00 0.00
10:29 pm 22:29 Cloudy with Mist and Fog 44 6.7 43 6.1 96 96 N 6 9 30.20 1023 2 3 0.00 0.00
10:52 pm 22:52 Mostly Clear with Mist and Fog 44 6.7 43 6.1 96 96 N 7 11 30.18 1022 1 2 0.00 0.00
11:03 pm 23:03 Cloudy with Mist and Fog 43 6.1 43 6.1 100 100 N 6 9 30.21 1023 3 5 0.00 0.00
11:52 pm 23:52 Cloudy with Mist and Fog 43 6.1 42 5.6 97 97 N 7 11 30.20 1023 4 6 0.00 0.00

Powered by AerisWeather